| time (UTC) | temp F | wind direction | speed MPH | gust MPH | rain 1hr in | rain 24hr in | rain mn in | humidity % | barometer mb |
| 20260507185519 | 55 | 0.0 | 0.0 | 0.00 | 0.00 | 0.00 | 83 | 1015.9 | |
| 20260507185024 | 55 | 0.0 | 0.0 | 0.00 | 0.00 | 0.00 | 81 | 1015.9 | |
| 20260507184516 | 55 | 0.0 | 0.0 | 0.00 | 0.00 | 0.00 | 80 | 1015.9 | |
| 20260507184020 | 56 | 0.0 | 0.0 | 0.00 | 0.00 | 0.00 | 80 | 1015.9 | |
| 20260507183555 | 56 | 0.0 | 0.0 | 0.00 | 0.00 | 0.00 | 80 | 1015.9 | |
| 20260507183046 | 56 | 0.0 | 0.0 | 0.00 | 0.00 | 0.00 | 78 | 1015.9 | |
| 20260507182520 | 56 | 0.0 | 0.0 | 0.00 | 0.00 | 0.00 | 77 | 1015.9 | |
| 20260507182054 | 57 | 0.0 | 0.0 | 0.00 | 0.00 | 0.00 | 77 | 1015.9 | |
| 20260507181516 | 57 | 0.0 | 0.0 | 0.00 | 0.00 | 0.00 | 77 | 1015.9 | |
| 20260507181050 | 57 | 0.0 | 0.0 | 0.00 | 0.00 | 0.00 | 77 | 1015.9 | |
| 20260507180525 | 58 | 0.0 | 0.0 | 0.00 | 0.00 | 0.00 | 77 | 1015.9 | |
| 20260507180016 | 58 | 0.0 | 0.0 | 0.00 | 0.00 | 0.00 | 76 | 1015.9 | |
| 20260507175520 | 58 | 0.0 | 0.0 | 0.00 | 0.00 | 0.00 | 74 | 1015.9 | |
| 20260507175024 | 58 | 0.0 | 0.0 | 0.00 | 0.00 | 0.00 | 72 | 1015.9 | |
| 20260507174516 | 58 | 0.0 | 0.0 | 0.00 | 0.00 | 0.00 | 70 | 1015.9 | |
| 20260507174034 | 58 | 0.0 | 0.0 | 0.00 | 0.00 | 0.00 | 70 | 1015.9 | |
| 20260507173526 | 58 | 0.0 | 0.0 | 0.00 | 0.00 | 0.00 | 71 | 1015.9 | |
| 20260507173019 | 58 | 0.0 | 0.0 | 0.00 | 0.00 | 0.00 | 73 | 1015.9 | |
| 20260507172522 | 58 | 0.0 | 0.0 | 0.00 | 0.00 | 0.00 | 73 | 1015.9 | |
| 20260507172057 | 58 | 0.0 | 0.0 | 0.00 | 0.00 | 0.00 | 73 | 1015.9 | |
| 20260507171519 | 58 | 0.0 | 0.0 | 0.00 | 0.00 | 0.00 | 72 | 1015.9 | |
| 20260507171023 | 58 | 359 | 0.0 | 1.0 | 0.00 | 0.00 | 0.00 | 72 | 1015.9 |
| 20260507170545 | 59 | 6 | 0.0 | 0.0 | 0.00 | 0.00 | 0.00 | 71 | 1015.9 |
| 20260507170020 | 59 | 19 | 0.0 | 2.0 | 0.00 | 0.00 | 0.00 | 69 | 1015.9 |
| 20260507165525 | 59 | 17 | 0.0 | 1.0 | 0.00 | 0.00 | 0.00 | 69 | 1015.9 |
| 20260507165017 | 59 | 14 | 0.0 | 2.0 | 0.00 | 0.00 | 0.00 | 70 | 1015.9 |
| 20260507164521 | 59 | 0.0 | 0.0 | 0.00 | 0.00 | 0.00 | 72 | 1015.9 | |
| 20260507164055 | 59 | 32 | 0.0 | 3.0 | 0.00 | 0.00 | 0.00 | 70 | 1015.9 |
| 20260507163518 | 59 | 0.0 | 0.0 | 0.00 | 0.00 | 0.00 | 71 | 1015.9 | |
| 20260507163022 | 60 | 359 | 0.0 | 1.0 | 0.00 | 0.00 | 0.00 | 70 | 1015.9 |
| 20260507162526 | 60 | 355 | 0.0 | 1.0 | 0.00 | 0.00 | 0.00 | 69 | 1016.0 |
| 20260507162018 | 60 | 0.0 | 0.0 | 0.00 | 0.00 | 0.00 | 68 | 1016.0 | |
| 20260507161523 | 60 | 0.0 | 0.0 | 0.00 | 0.00 | 0.00 | 69 | 1015.9 | |
| 20260507161027 | 60 | 0.0 | 0.0 | 0.00 | 0.00 | 0.00 | 68 | 1015.9 | |
| 20260507160519 | 60 | 355 | 0.0 | 0.0 | 0.00 | 0.00 | 0.00 | 68 | 1015.9 |
| 20260507160023 | 59 | 0.0 | 0.0 | 0.00 | 0.00 | 0.00 | 68 | 1015.9 | |
| 20260507155527 | 59 | 0 | 0.0 | 1.0 | 0.00 | 0.00 | 0.00 | 68 | 1015.9 |
| 20260507155018 | 59 | 18 | 0.0 | 1.0 | 0.00 | 0.00 | 0.00 | 69 | 1015.9 |
| 20260507154622 | 59 | 10 | 0.0 | 2.0 | 0.00 | 0.00 | 0.00 | 68 | 1015.9 |
| 20260507154027 | 59 | 4 | 0.0 | 1.0 | 0.00 | 0.00 | 0.00 | 69 | 1015.9 |
| 20260507153518 | 60 | 6 | 0.0 | 1.0 | 0.00 | 0.00 | 0.00 | 70 | 1015.9 |
| 20260507153022 | 60 | 355 | 0.0 | 1.0 | 0.00 | 0.00 | 0.00 | 68 | 1016.0 |
| 20260507152526 | 60 | 0.0 | 0.0 | 0.00 | 0.00 | 0.00 | 67 | 1015.9 | |
| 20260507152018 | 60 | 0.0 | 0.0 | 0.00 | 0.00 | 0.00 | 68 | 1016.0 | |
| 20260507151623 | 60 | 359 | 0.0 | 1.0 | 0.00 | 0.00 | 0.00 | 67 | 1016.0 |
| 20260507151015 | 61 | 27 | 1.0 | 2.0 | 0.00 | 0.00 | 0.00 | 66 | 1016.0 |
| 20260507150519 | 62 | 10 | 0.0 | 1.0 | 0.00 | 0.00 | 0.00 | 65 | 1016.0 |
| 20260507150054 | 63 | 13 | 1.0 | 2.0 | 0.00 | 0.00 | 0.00 | 64 | 1016.1 |
| 20260507145515 | 63 | 18 | 0.0 | 2.0 | 0.00 | 0.00 | 0.00 | 62 | 1016.0 |
| 20260507145050 | 63 | 11 | 0.0 | 2.0 | 0.00 | 0.00 | 0.00 | 62 | 1016.0 |
| 20260507144524 | 63 | 331 | 1.0 | 3.0 | 0.00 | 0.00 | 0.00 | 61 | 1016.0 |
| 20260507144017 | 64 | 29 | 1.0 | 5.0 | 0.00 | 0.00 | 0.00 | 60 | 1016.1 |
| 20260507143521 | 64 | 4 | 1.0 | 2.0 | 0.00 | 0.00 | 0.00 | 60 | 1016.1 |
| 20260507143039 | 64 | 9 | 0.0 | 2.0 | 0.00 | 0.00 | 0.00 | 60 | 1016.1 |
| 20260507142531 | 63 | 6 | 0.0 | 2.0 | 0.00 | 0.00 | 0.00 | 62 | 1016.1 |
| 20260507142024 | 63 | 19 | 0.0 | 2.0 | 0.00 | 0.00 | 0.00 | 62 | 1016.1 |
| 20260507141616 | 63 | 360 | 0.0 | 1.0 | 0.00 | 0.00 | 0.00 | 63 | 1016.1 |
| 20260507141020 | 63 | 18 | 0.0 | 2.0 | 0.00 | 0.00 | 0.00 | 65 | 1016.1 |
| 20260507140525 | 63 | 27 | 1.0 | 3.0 | 0.00 | 0.00 | 0.00 | 63 | 1016.1 |
| 20260507140017 | 63 | 339 | 0.0 | 3.0 | 0.00 | 0.00 | 0.00 | 65 | 1016.1 |
| 20260507135522 | 61 | 323 | 0.0 | 2.0 | 0.00 | 0.00 | 0.00 | 68 | 1016.0 |
| 20260507135015 | 61 | 20 | 1.0 | 3.0 | 0.00 | 0.00 | 0.00 | 67 | 1016.0 |
| 20260507134520 | 60 | 12 | 0.0 | 2.0 | 0.00 | 0.00 | 0.00 | 70 | 1016.0 |
| 20260507134025 | 59 | 14 | 0.0 | 1.0 | 0.00 | 0.00 | 0.00 | 70 | 1016.0 |
| 20260507133547 | 59 | 27 | 1.0 | 2.0 | 0.00 | 0.00 | 0.00 | 70 | 1016.0 |
| 20260507133052 | 59 | 18 | 0.0 | 1.0 | 0.00 | 0.00 | 0.00 | 71 | 1016.0 |
| 20260507132545 | 58 | 325 | 0.0 | 1.0 | 0.00 | 0.00 | 0.00 | 71 | 1016.0 |
| 20260507132020 | 59 | 312 | 0.0 | 0.0 | 0.00 | 0.00 | 0.00 | 70 | 1016.0 |
| 20260507131525 | 58 | 358 | 0.0 | 1.0 | 0.00 | 0.00 | 0.00 | 73 | 1016.0 |
| 20260507131017 | 58 | 0.0 | 0.0 | 0.00 | 0.00 | 0.00 | 74 | 1016.0 | |
| 20260507130522 | 58 | 321 | 0.0 | 1.0 | 0.00 | 0.01 | 0.00 | 74 | 1016.0 |
| 20260507130015 | 58 | 312 | 0.0 | 2.0 | 0.00 | 0.01 | 0.00 | 73 | 1016.0 |
| 20260507125520 | 58 | 0.0 | 0.0 | 0.00 | 0.01 | 0.00 | 74 | 1016.0 | |
| 20260507125025 | 58 | 0.0 | 0.0 | 0.00 | 0.01 | 0.00 | 73 | 1015.9 | |
| 20260507124517 | 57 | 0.0 | 0.0 | 0.00 | 0.01 | 0.00 | 73 | 1015.9 | |
| 20260507124022 | 57 | 315 | 0.0 | 1.0 | 0.00 | 0.01 | 0.00 | 76 | 1016.0 |
| 20260507123527 | 57 | 309 | 0.0 | 2.0 | 0.00 | 0.01 | 0.00 | 74 | 1016.0 |
| 20260507123019 | 58 | 320 | 0.0 | 1.0 | 0.00 | 0.01 | 0.00 | 74 | 1016.0 |
| 20260507122525 | 58 | 0.0 | 0.0 | 0.00 | 0.01 | 0.00 | 74 | 1016.0 | |
| 20260507122017 | 57 | 0.0 | 0.0 | 0.00 | 0.01 | 0.00 | 75 | 1016.0 | |
| 20260507121552 | 57 | 318 | 0.0 | 0.0 | 0.00 | 0.01 | 0.00 | 74 | 1015.9 |
| 20260507121026 | 57 | 0.0 | 0.0 | 0.00 | 0.02 | 0.00 | 74 | 1016.0 | |
| 20260507120549 | 57 | 0.0 | 0.0 | 0.00 | 0.02 | 0.00 | 73 | 1015.9 | |
| 20260507120024 | 57 | 0.0 | 0.0 | 0.00 | 0.02 | 0.00 | 74 | 1016.0 | |
| 20260507115517 | 57 | 0.0 | 0.0 | 0.00 | 0.02 | 0.00 | 75 | 1015.9 | |
| 20260507115021 | 56 | 0.0 | 0.0 | 0.00 | 0.02 | 0.00 | 77 | 1015.9 | |
| 20260507114556 | 56 | 325 | 0.0 | 0.0 | 0.00 | 0.02 | 0.00 | 76 | 1015.9 |
| 20260507114018 | 55 | 0.0 | 0.0 | 0.00 | 0.02 | 0.00 | 76 | 1015.9 | |
| 20260507113523 | 55 | 318 | 0.0 | 1.0 | 0.00 | 0.02 | 0.00 | 77 | 1015.9 |
| 20260507113015 | 55 | 319 | 0.0 | 1.0 | 0.00 | 0.02 | 0.00 | 79 | 1015.9 |
| 20260507112519 | 55 | 310 | 0.0 | 2.0 | 0.00 | 0.02 | 0.00 | 79 | 1015.9 |
| 20260507112024 | 54 | 323 | 0.0 | 0.0 | 0.00 | 0.02 | 0.00 | 81 | 1015.9 |
| 20260507111546 | 54 | 0.0 | 0.0 | 0.00 | 0.02 | 0.00 | 81 | 1015.9 | |
| 20260507111021 | 54 | 0.0 | 0.0 | 0.00 | 0.02 | 0.00 | 82 | 1015.9 | |
| 20260507110539 | 54 | 0.0 | 0.0 | 0.00 | 0.02 | 0.00 | 82 | 1015.9 | |
| 20260507110031 | 54 | 0.0 | 0.0 | 0.00 | 0.02 | 0.00 | 83 | 1015.9 | |
| 20260507105523 | 54 | 0.0 | 0.0 | 0.00 | 0.02 | 0.00 | 82 | 1015.9 | |
| 20260507105016 | 54 | 0.0 | 0.0 | 0.00 | 0.02 | 0.00 | 82 | 1015.9 | |
| 20260507104547 | 54 | 0.0 | 0.0 | 0.00 | 0.02 | 0.00 | 82 | 1015.9 | |
| 20260507104052 | 54 | 0.0 | 0.0 | 0.00 | 0.02 | 0.00 | 83 | 1015.9 | |
| 20260507103540 | 54 | 319 | 0.0 | 0.0 | 0.00 | 0.02 | 0.00 | 82 | 1015.9 |
| 20260507103032 | 54 | 318 | 0.0 | 1.0 | 0.00 | 0.02 | 0.00 | 83 | 1015.9 |
| 20260507102524 | 54 | 306 | 0.0 | 2.0 | 0.00 | 0.02 | 0.00 | 81 | 1015.9 |
| 20260507102017 | 54 | 316 | 0.0 | 1.0 | 0.00 | 0.02 | 0.00 | 81 | 1015.9 |
| 20260507101520 | 54 | 321 | 0.0 | 0.0 | 0.00 | 0.02 | 0.00 | 81 | 1015.9 |
| 20260507101024 | 55 | 0.0 | 0.0 | 0.00 | 0.02 | 0.00 | 80 | 1015.9 | |
| 20260507100547 | 55 | 0.0 | 0.0 | 0.00 | 0.02 | 0.00 | 80 | 1015.9 | |
| 20260507100051 | 54 | 0.0 | 0.0 | 0.00 | 0.02 | 0.00 | 81 | 1015.9 | |
| 20260507095526 | 54 | 0.0 | 0.0 | 0.00 | 0.02 | 0.00 | 80 | 1015.9 | |
| 20260507095019 | 54 | 0.0 | 0.0 | 0.00 | 0.02 | 0.00 | 79 | 1015.9 | |
| 20260507094523 | 54 | 0.0 | 0.0 | 0.00 | 0.02 | 0.00 | 80 | 1015.9 | |
| 20260507094015 | 54 | 0.0 | 0.0 | 0.00 | 0.02 | 0.00 | 79 | 1015.9 | |
| 20260507093520 | 54 | 311 | 0.0 | 1.0 | 0.00 | 0.02 | 0.00 | 80 | 1015.9 |
| 20260507093025 | 54 | 307 | 0.0 | 2.0 | 0.00 | 0.02 | 0.00 | 79 | 1015.9 |
| 20260507092517 | 54 | 292 | 1.0 | 2.0 | 0.00 | 0.02 | 0.00 | 79 | 1015.9 |
| 20260507092022 | 54 | 299 | 1.0 | 3.0 | 0.00 | 0.02 | 0.00 | 80 | 1015.6 |
| 20260507091557 | 55 | 282 | 1.0 | 5.0 | 0.00 | 0.02 | 0.00 | 79 | 1014.9 |
| 20260507091019 | 55 | 310 | 1.0 | 2.0 | 0.00 | 0.02 | 0.00 | 78 | 1014.9 |
| 20260507090523 | 55 | 275 | 1.0 | 5.0 | 0.00 | 0.02 | 0.00 | 81 | 1015.1 |
| 20260507090216 | 55 | 317 | 0.0 | 2.0 | 0.00 | 0.02 | 0.00 | 79 | 1015.9 |
| 20260507085520 | 54 | 305 | 0.0 | 3.0 | 0.00 | 0.02 | 0.00 | 81 | 1015.9 |
| 20260507085025 | 53 | 306 | 1.0 | 7.0 | 0.00 | 0.02 | 0.00 | 84 | 1015.9 |
| 20260507084517 | 52 | 315 | 0.0 | 2.0 | 0.00 | 0.02 | 0.00 | 87 | 1015.8 |
| 20260507084022 | 51 | 306 | 0.0 | 2.0 | 0.00 | 0.02 | 0.00 | 88 | 1015.8 |
| 20260507083526 | 51 | 305 | 1.0 | 2.0 | 0.00 | 0.02 | 0.00 | 89 | 1015.7 |
| 20260507083018 | 51 | 296 | 0.0 | 2.0 | 0.00 | 0.02 | 0.00 | 89 | 1014.8 |
| 20260507082522 | 51 | 0.0 | 0.0 | 0.00 | 0.02 | 0.00 | 89 | 1014.8 | |
| 20260507082027 | 51 | 318 | 0.0 | 2.0 | 0.00 | 0.02 | 0.00 | 89 | 1014.8 |
| 20260507081518 | 51 | 312 | 0.0 | 2.0 | 0.00 | 0.02 | 0.00 | 89 | 1014.8 |
| 20260507081022 | 51 | 0.0 | 0.0 | 0.00 | 0.02 | 0.00 | 90 | 1014.8 | |
| 20260507080527 | 51 | 0.0 | 0.0 | 0.00 | 0.02 | 0.00 | 90 | 1014.8 | |
| 20260507080018 | 51 | 0.0 | 0.0 | 0.00 | 0.02 | 0.00 | 90 | 1014.8 | |
| 20260507075523 | 51 | 0.0 | 0.0 | 0.00 | 0.02 | 0.00 | 91 | 1014.8 | |
| 20260507075027 | 50 | 0.0 | 0.0 | 0.00 | 0.02 | 0.00 | 91 | 1014.8 | |
| 20260507074549 | 50 | 0.0 | 0.0 | 0.00 | 0.02 | 0.00 | 92 | 1014.8 | |
| 20260507074023 | 50 | 0.0 | 0.0 | 0.00 | 0.02 | 0.00 | 92 | 1014.8 | |
| 20260507073515 | 50 | 0.0 | 0.0 | 0.00 | 0.02 | 0.00 | 93 | 1014.8 | |
| 20260507073019 | 50 | 0.0 | 0.0 | 0.00 | 0.02 | 0.00 | 92 | 1014.8 | |
| 20260507072524 | 50 | 0.0 | 0.0 | 0.00 | 0.02 | 0.00 | 93 | 1014.8 | |
| 20260507072016 | 49 | 319 | 0.0 | 0.0 | 0.00 | 0.02 | 0.00 | 94 | 1014.8 |
| 20260507071533 | 49 | 313 | 0.0 | 1.0 | 0.00 | 0.02 | 0.00 | 93 | 1014.8 |
| 20260507071043 | 49 | 0.0 | 0.0 | 0.00 | 0.02 | 0.00 | 94 | 1014.8 | |
| 20260507070546 | 49 | 318 | 0.0 | 0.0 | 0.00 | 0.02 | 0.00 | 94 | 1014.8 |
| 20260507070135 | 49 | 314 | 0.0 | 1.0 | 0.00 | 0.02 | 0.00 | 94 | 1014.8 |
| 20260507065553 | 49 | 0.0 | 0.0 | 0.00 | 0.02 | 0.00 | 95 | 1014.8 | |
| 20260507065016 | 49 | 0.0 | 0.0 | 0.00 | 0.02 | 0.00 | 95 | 1014.8 | |
| 20260507064520 | 48 | 0.0 | 0.0 | 0.00 | 0.02 | 0.00 | 95 | 1014.8 | |
| 20260507064024 | 48 | 0.0 | 0.0 | 0.00 | 0.02 | 0.00 | 95 | 1014.8 | |
| 20260507063516 | 48 | 0.0 | 0.0 | 0.00 | 0.02 | 0.00 | 96 | 1014.8 | |
| 20260507063019 | 48 | 320 | 0.0 | 1.0 | 0.00 | 0.02 | 0.00 | 96 | 1014.6 |
| 20260507062637 | 48 | 0.0 | 0.0 | 0.00 | 0.02 | 0.00 | 95 | 1013.8 | |
| 20260507062027 | 48 | 306 | 0.0 | 2.0 | 0.00 | 0.02 | 0.00 | 95 | 1013.8 |
| 20260507061713 | 48 | 0.0 | 0.0 | 0.00 | 0.02 | 0.00 | 96 | 1013.8 | |
| 20260507061022 | 48 | 316 | 0.0 | 1.0 | 0.00 | 0.02 | 0.00 | 96 | 1013.8 |
| 20260507060526 | 47 | 315 | 0.0 | 1.0 | 0.00 | 0.02 | 0.00 | 97 | 1013.8 |
| 20260507060018 | 47 | 0.0 | 0.0 | 0.00 | 0.02 | 0.00 | 97 | 1013.8 | |
| 20260507055522 | 47 | 312 | 0.0 | 2.0 | 0.00 | 0.02 | 0.00 | 97 | 1013.8 |
| 20260507055026 | 47 | 321 | 0.0 | 1.0 | 0.00 | 0.02 | 0.00 | 98 | 1013.8 |
| 20260507054518 | 47 | 319 | 0.0 | 1.0 | 0.00 | 0.02 | 0.00 | 98 | 1013.8 |
| 20260507054021 | 47 | 0.0 | 0.0 | 0.00 | 0.02 | 0.00 | 99 | 1013.8 | |
| 20260507053526 | 47 | 0.0 | 0.0 | 0.00 | 0.02 | 0.00 | 99 | 1013.8 | |
| 20260507053048 | 47 | 0.0 | 0.0 | 0.00 | 0.02 | 0.00 | 99 | 1013.8 | |
| 20260507052521 | 46 | 301 | 0.0 | 2.0 | 0.00 | 0.02 | 0.00 | 99 | 1013.8 |
| 20260507052025 | 46 | 302 | 0.0 | 2.0 | 0.00 | 0.02 | 0.00 | 99 | 1013.8 |
| 20260507051517 | 46 | 0.0 | 0.0 | 0.00 | 0.02 | 0.00 | 99 | 1013.8 | |
| 20260507051021 | 46 | 0.0 | 0.0 | 0.00 | 0.02 | 0.00 | 99 | 1013.8 | |
| 20260507050525 | 46 | 0.0 | 0.0 | 0.00 | 0.02 | 0.00 | 99 | 1013.8 | |
| 20260507050017 | 46 | 0.0 | 0.0 | 0.00 | 0.02 | 0.00 | 99 | 1013.8 | |
| 20260507045521 | 46 | 0.0 | 0.0 | 0.00 | 0.02 | 0.00 | 99 | 1013.8 | |
| 20260507045038 | 46 | 0.0 | 0.0 | 0.00 | 0.02 | 0.00 | 99 | 1013.8 | |
| 20260507044530 | 46 | 0.0 | 0.0 | 0.00 | 0.02 | 0.00 | 99 | 1013.8 | |
| 20260507044021 | 46 | 0.0 | 0.0 | 0.00 | 0.02 | 0.00 | 99 | 1013.0 | |
| 20260507043524 | 46 | 0.0 | 0.0 | 0.00 | 0.02 | 0.00 | 99 | 1012.8 | |
| 20260507043016 | 46 | 0.0 | 0.0 | 0.00 | 0.02 | 0.00 | 99 | 1012.8 | |
| 20260507042520 | 46 | 0.0 | 0.0 | 0.00 | 0.02 | 0.00 | 99 | 1012.9 | |
| 20260507042024 | 46 | 0.0 | 0.0 | 0.00 | 0.02 | 0.00 | 99 | 1012.9 | |
| 20260507041546 | 46 | 0.0 | 0.0 | 0.00 | 0.02 | 0.00 | 99 | 1012.9 | |
| 20260507041020 | 46 | 0.0 | 0.0 | 0.00 | 0.02 | 0.00 | 99 | 1012.9 | |
| 20260507040524 | 46 | 0.0 | 0.0 | 0.00 | 0.02 | 0.00 | 99 | 1012.9 | |
| 20260507040016 | 46 | 0.0 | 0.0 | 0.00 | 0.02 | 0.00 | 99 | 1012.9 | |
| 20260507035550 | 46 | 0.0 | 0.0 | 0.00 | 0.02 | 0.00 | 99 | 1012.9 | |
| 20260507035024 | 46 | 0.0 | 0.0 | 0.00 | 0.02 | 0.00 | 99 | 1012.9 | |
| 20260507034516 | 46 | 0.0 | 0.0 | 0.00 | 0.02 | 0.00 | 99 | 1012.9 | |
| 20260507034438 | 47 | 0.0 | 0.0 | 0.00 | 0.02 | 0.00 | 99 | 1012.9 | |
| 20260507033503 | 47 | 0.0 | 0.0 | 0.00 | 0.02 | 0.00 | 99 | 1012.9 | |
| 20260507032521 | 47 | 0.0 | 0.0 | 0.00 | 0.02 | 0.00 | 99 | 1012.9 | |
| 20260507032024 | 47 | 0.0 | 0.0 | 0.00 | 0.02 | 0.00 | 99 | 1012.9 | |
| 20260507031516 | 47 | 0.0 | 0.0 | 0.00 | 0.02 | 0.00 | 99 | 1012.9 | |
| 20260507031020 | 47 | 0.0 | 0.0 | 0.00 | 0.02 | 0.00 | 98 | 1012.9 | |
| 20260507030524 | 47 | 0.0 | 0.0 | 0.00 | 0.02 | 0.00 | 98 | 1012.9 | |
| 20260507030016 | 47 | 0.0 | 0.0 | 0.00 | 0.02 | 0.00 | 98 | 1012.9 | |
| 20260507025520 | 47 | 0.0 | 0.0 | 0.00 | 0.02 | 0.00 | 97 | 1012.9 | |
| 20260507025025 | 47 | 0.0 | 0.0 | 0.00 | 0.02 | 0.00 | 97 | 1012.9 | |
| 20260507024517 | 47 | 0.0 | 0.0 | 0.00 | 0.02 | 0.00 | 97 | 1012.9 | |
| 20260507024021 | 47 | 0.0 | 0.0 | 0.00 | 0.02 | 0.00 | 97 | 1012.9 | |
| 20260507023556 | 47 | 0.0 | 0.0 | 0.00 | 0.02 | 0.00 | 96 | 1012.9 | |
| 20260507023017 | 48 | 0.0 | 0.0 | 0.00 | 0.03 | 0.00 | 96 | 1012.9 | |
| 20260507022522 | 48 | 0.0 | 0.0 | 0.00 | 0.03 | 0.00 | 96 | 1012.9 | |
| 20260507022026 | 48 | 0.0 | 0.0 | 0.00 | 0.03 | 0.00 | 95 | 1012.9 | |
| 20260507021518 | 48 | 0.0 | 0.0 | 0.00 | 0.03 | 0.00 | 95 | 1012.9 | |
| 20260507021023 | 48 | 0.0 | 0.0 | 0.00 | 0.03 | 0.00 | 95 | 1012.9 | |
| 20260507020515 | 48 | 0.0 | 0.0 | 0.00 | 0.03 | 0.00 | 95 | 1012.9 | |
| 20260507020019 | 48 | 0.0 | 0.0 | 0.00 | 0.03 | 0.00 | 95 | 1012.9 | |
| 20260507015554 | 48 | 321 | 0.0 | 1.0 | 0.00 | 0.03 | 0.00 | 95 | 1012.9 |
| 20260507015016 | 48 | 0.0 | 0.0 | 0.00 | 0.03 | 0.00 | 94 | 1011.9 | |
| 20260507014521 | 48 | 0.0 | 0.0 | 0.00 | 0.03 | 0.00 | 94 | 1011.8 | |
| 20260507014025 | 48 | 0.0 | 0.0 | 0.00 | 0.03 | 0.00 | 94 | 1011.8 | |
| 20260507013548 | 48 | 0.0 | 0.0 | 0.00 | 0.03 | 0.00 | 94 | 1011.8 | |
| 20260507013022 | 49 | 0.0 | 0.0 | 0.00 | 0.03 | 0.00 | 93 | 1011.8 | |
| 20260507012526 | 49 | 325 | 0.0 | 1.0 | 0.00 | 0.03 | 0.00 | 93 | 1011.8 |
| 20260507012018 | 49 | 315 | 0.0 | 0.0 | 0.00 | 0.03 | 0.00 | 93 | 1011.9 |
| 20260507011523 | 49 | 312 | 0.0 | 1.0 | 0.00 | 0.03 | 0.00 | 93 | 1011.9 |
| 20260507011015 | 49 | 0.0 | 0.0 | 0.00 | 0.03 | 0.00 | 92 | 1011.9 | |
| 20260507010929 | 49 | 0.0 | 0.0 | 0.00 | 0.03 | 0.00 | 92 | 1011.9 | |
| 20260507010252 | 49 | 0.0 | 0.0 | 0.00 | 0.03 | 0.00 | 92 | 1011.9 | |
| 20260507005516 | 49 | 0.0 | 0.0 | 0.00 | 0.03 | 0.00 | 92 | 1011.9 | |
| 20260507005320 | 49 | 0.0 | 0.0 | 0.00 | 0.03 | 0.00 | 92 | 1011.9 | |
| 20260507004610 | 49 | 0.0 | 0.0 | 0.00 | 0.03 | 0.00 | 92 | 1011.9 | |
| 20260507004017 | 49 | 322 | 0.0 | 1.0 | 0.00 | 0.03 | 0.00 | 92 | 1011.9 |
| 20260507003522 | 49 | 0.0 | 0.0 | 0.00 | 0.03 | 0.00 | 92 | 1011.9 | |
| 20260507003026 | 49 | 319 | 0.0 | 1.0 | 0.00 | 0.03 | 0.00 | 91 | 1011.9 |
| 20260507002519 | 49 | 319 | 0.0 | 1.0 | 0.00 | 0.03 | 0.00 | 91 | 1011.9 |
| 20260507002036 | 49 | 319 | 0.0 | 0.0 | 0.00 | 0.03 | 0.00 | 92 | 1011.9 |
| 20260507001529 | 49 | 319 | 0.0 | 1.0 | 0.00 | 0.03 | 0.00 | 92 | 1011.9 |
| 20260507001020 | 49 | 300 | 0.0 | 1.0 | 0.00 | 0.03 | 0.00 | 92 | 1011.9 |
| 20260507000523 | 49 | 319 | 0.0 | 1.0 | 0.00 | 0.03 | 0.00 | 91 | 1011.9 |
| 20260507000016 | 49 | 0.0 | 0.0 | 0.00 | 0.03 | 0.00 | 91 | 1011.9 | |
| 20260506235520 | 49 | 0.0 | 0.0 | 0.00 | 0.03 | 0.00 | 91 | 1011.9 | |
| 20260506235024 | 49 | 310 | 0.0 | 2.0 | 0.00 | 0.03 | 0.00 | 92 | 1011.9 |
| 20260506234547 | 49 | 0.0 | 0.0 | 0.00 | 0.03 | 0.00 | 92 | 1011.9 | |
| 20260506234021 | 49 | 0.0 | 0.0 | 0.00 | 0.03 | 0.00 | 92 | 1011.9 | |
| 20260506233525 | 49 | 0.0 | 0.0 | 0.00 | 0.03 | 0.00 | 92 | 1011.9 | |
| 20260506233017 | 49 | 317 | 0.0 | 1.0 | 0.00 | 0.03 | 0.00 | 92 | 1011.9 |
| 20260506232551 | 49 | 314 | 0.0 | 2.0 | 0.00 | 0.03 | 0.00 | 92 | 1011.9 |
| 20260506232026 | 49 | 320 | 0.0 | 0.0 | 0.00 | 0.03 | 0.00 | 92 | 1011.9 |
| 20260506231518 | 50 | 320 | 0.0 | 0.0 | 0.00 | 0.03 | 0.00 | 91 | 1011.9 |
| 20260506231022 | 50 | 0.0 | 0.0 | 0.00 | 0.03 | 0.00 | 91 | 1011.9 | |
| 20260506230527 | 50 | 0.0 | 0.0 | 0.00 | 0.03 | 0.00 | 91 | 1011.9 | |
| 20260506230019 | 50 | 357 | 0.0 | 0.0 | 0.00 | 0.03 | 0.00 | 91 | 1011.9 |
| 20260506225523 | 50 | 328 | 0.0 | 1.0 | 0.00 | 0.03 | 0.00 | 91 | 1011.9 |
| 20260506225015 | 50 | 315 | 0.0 | 0.0 | 0.00 | 0.03 | 0.00 | 91 | 1011.9 |
| 20260506224521 | 50 | 0.0 | 0.0 | 0.00 | 0.03 | 0.00 | 91 | 1011.9 | |
| 20260506224026 | 50 | 0.0 | 0.0 | 0.00 | 0.03 | 0.00 | 91 | 1011.9 | |
| 20260506223618 | 50 | 0.0 | 0.0 | 0.00 | 0.03 | 0.00 | 91 | 1011.4 | |
| 20260506223022 | 50 | 0.0 | 0.0 | 0.00 | 0.03 | 0.00 | 91 | 1010.9 | |
| 20260506222527 | 49 | 0.0 | 0.0 | 0.00 | 0.03 | 0.00 | 91 | 1010.9 | |
| 20260506222019 | 49 | 313 | 0.0 | 1.0 | 0.00 | 0.03 | 0.00 | 91 | 1010.8 |
| 20260506221524 | 49 | 309 | 0.0 | 1.0 | 0.00 | 0.03 | 0.00 | 92 | 1010.8 |
| 20260506221016 | 49 | 331 | 0.0 | 1.0 | 0.00 | 0.03 | 0.00 | 93 | 1010.8 |
| 20260506220520 | 49 | 0.0 | 0.0 | 0.00 | 0.03 | 0.00 | 93 | 1010.8 | |
| 20260506220025 | 49 | 313 | 0.0 | 2.0 | 0.00 | 0.03 | 0.00 | 93 | 1010.8 |
| 20260506215517 | 49 | 316 | 0.0 | 1.0 | 0.00 | 0.03 | 0.03 | 94 | 1010.8 |
| 20260506215021 | 49 | 0.0 | 0.0 | 0.00 | 0.03 | 0.03 | 94 | 1010.8 | |
| 20260506214657 | 50 | 0.0 | 0.0 | 0.00 | 0.03 | 0.03 | 94 | 1010.9 | |
| 20260506214018 | 50 | 0.0 | 0.0 | 0.00 | 0.03 | 0.03 | 94 | 1010.9 | |
| 20260506213733 | 50 | 0.0 | 0.0 | 0.00 | 0.03 | 0.03 | 93 | 1010.9 | |
| 20260506213015 | 50 | 0.0 | 0.0 | 0.00 | 0.03 | 0.03 | 93 | 1010.9 | |
| 20260506212519 | 50 | 0.0 | 0.0 | 0.00 | 0.03 | 0.03 | 92 | 1010.9 | |
| 20260506212024 | 50 | 0.0 | 0.0 | 0.00 | 0.03 | 0.03 | 91 | 1010.8 | |
| 20260506211517 | 50 | 0.0 | 0.0 | 0.00 | 0.03 | 0.03 | 90 | 1010.8 | |
| 20260506211022 | 50 | 0.0 | 0.0 | 0.00 | 0.03 | 0.03 | 91 | 1010.8 | |
| 20260506210556 | 50 | 317 | 0.0 | 0.0 | 0.00 | 0.03 | 0.03 | 91 | 1010.8 |
| 20260506210018 | 50 | 311 | 0.0 | 2.0 | 0.00 | 0.03 | 0.03 | 91 | 1010.8 |
| 20260506205623 | 50 | 317 | 0.0 | 1.0 | 0.00 | 0.03 | 0.03 | 91 | 1010.8 |
| 20260506205234 | 50 | 0.0 | 0.0 | 0.00 | 0.03 | 0.03 | 90 | 1010.8 | |
| 20260506204520 | 50 | 0.0 | 0.0 | 0.00 | 0.03 | 0.03 | 90 | 1009.9 | |
| 20260506204311 | 50 | 321 | 0.0 | 1.0 | 0.00 | 0.03 | 0.03 | 90 | 1009.8 |
| 20260506203547 | 50 | 0.0 | 0.0 | 0.00 | 0.03 | 0.03 | 90 | 1009.8 | |
| 20260506203021 | 50 | 308 | 0.0 | 2.0 | 0.00 | 0.03 | 0.03 | 89 | 1010.7 |
| 20260506202526 | 50 | 347 | 0.0 | 0.0 | 0.00 | 0.03 | 0.03 | 89 | 1010.8 |
| 20260506202018 | 51 | 0.0 | 0.0 | 0.00 | 0.03 | 0.03 | 89 | 1010.8 | |
| 20260506201523 | 51 | 314 | 0.0 | 1.0 | 0.00 | 0.03 | 0.03 | 88 | 1010.0 |
| 20260506201045 | 51 | 0.0 | 0.0 | 0.00 | 0.03 | 0.03 | 88 | 1009.8 | |
| 20260506200520 | 51 | 317 | 0.0 | 0.0 | 0.00 | 0.03 | 0.03 | 88 | 1009.8 |
| 20260506200024 | 51 | 314 | 0.0 | 1.0 | 0.00 | 0.03 | 0.03 | 88 | 1009.8 |
| 20260506195547 | 51 | 295 | 0.0 | 2.0 | 0.00 | 0.03 | 0.03 | 88 | 1009.8 |
| 20260506195021 | 52 | 294 | 1.0 | 2.0 | 0.00 | 0.03 | 0.03 | 89 | 1009.9 |
| 20260506194824 | 52 | 322 | 0.0 | 1.0 | 0.00 | 0.03 | 0.03 | 88 | 1009.8 |
| 20260506194018 | 52 | 316 | 1.0 | 2.0 | 0.00 | 0.03 | 0.03 | 88 | 1009.8 |
| 20260506193829 | 52 | 298 | 0.0 | 3.0 | 0.00 | 0.03 | 0.03 | 90 | 1009.8 |
| 20260506193015 | 52 | 304 | 1.0 | 3.0 | 0.00 | 0.03 | 0.03 | 91 | 1009.8 |
| 20260506192520 | 52 | 320 | 0.0 | 2.0 | 0.00 | 0.03 | 0.03 | 91 | 1009.8 |
| 20260506192025 | 52 | 0.0 | 0.0 | 0.00 | 0.03 | 0.03 | 92 | 1009.8 | |
| 20260506191517 | 53 | 0.0 | 0.0 | 0.00 | 0.03 | 0.03 | 90 | 1009.8 | |
| 20260506191023 | 53 | 0.0 | 0.0 | 0.00 | 0.03 | 0.03 | 90 | 1009.9 | |
| 20260506190557 | 53 | 0.0 | 0.0 | 0.00 | 0.03 | 0.03 | 90 | 1009.9 | |
| 20260506190019 | 53 | 0.0 | 0.0 | 0.00 | 0.03 | 0.03 | 90 | 1009.4 |